AAL2522 MMAA-KDFW

Flight info

Callsign AAL2522
Flight time N/A
Altitude 35000
Route ACA4B ACA J21 TEQ UT167 LEXOR/N0447F360 UT167 TAM UJ53 REX DCT MFE DCT SAT/N0441F370 DCT GUTZZ SOCKK4
Aircraft A320/M-SDE3FGHIRWY/LB1

Departure

Time 2026-05-06 00:38
Airport General Juan N. Álvarez International Airport (MMAA)

Arrival

Time N/A
Airport Dallas Fort Worth International Airport (KDFW)
Time Latitude Longitude Altitude Speed Heading
2026-05-06 00:13 16.76169 -99.75617 21 ft 0 kts 16°
2026-05-06 00:14 16.76168 -99.75617 21 ft 0 kts 16°
2026-05-06 00:26 16.76167 -99.75617 21 ft 1 kts 16°
2026-05-06 00:26 16.76152 -99.75622 23 ft 3 kts 20°
2026-05-06 00:26 16.76133 -99.75630 23 ft 3 kts 30°
2026-05-06 00:27 16.76117 -99.75642 23 ft 3 kts 52°
2026-05-06 00:27 16.76110 -99.75657 24 ft 2 kts 101°
2026-05-06 00:27 16.76110 -99.75661 23 ft 2 kts 107°
2026-05-06 00:30 16.76109 -99.75659 23 ft 2 kts 116°
2026-05-06 00:31 16.76063 -99.75625 21 ft 9 kts 139°
2026-05-06 00:31 16.76039 -99.75566 22 ft 9 kts 106°
2026-05-06 00:31 16.76020 -99.75501 21 ft 10 kts 107°
2026-05-06 00:31 16.75999 -99.75427 22 ft 11 kts 107°
2026-05-06 00:32 16.75955 -99.75361 21 ft 12 kts 157°
2026-05-06 00:32 16.75907 -99.75343 21 ft 6 kts 158°
2026-05-06 00:32 16.75885 -99.75304 21 ft 7 kts 103°
2026-05-06 00:32 16.75870 -99.75248 22 ft 9 kts 107°
2026-05-06 00:33 16.75848 -99.75183 21 ft 11 kts 109°
2026-05-06 00:33 16.75812 -99.75065 23 ft 20 kts 108°
2026-05-06 00:33 16.75767 -99.74924 21 ft 21 kts 107°
2026-05-06 00:33 16.75718 -99.74772 20 ft 23 kts 110°
2026-05-06 00:34 16.75665 -99.74612 20 ft 24 kts 108°
2026-05-06 00:34 16.75617 -99.74441 21 ft 25 kts 105°
2026-05-06 00:34 16.75559 -99.74263 21 ft 26 kts 110°
2026-05-06 00:34 16.75510 -99.74102 22 ft 21 kts 108°
2026-05-06 00:35 16.75466 -99.73964 21 ft 17 kts 108°
2026-05-06 00:35 16.75428 -99.73843 21 ft 18 kts 108°
2026-05-06 00:35 16.75388 -99.73713 21 ft 20 kts 108°
2026-05-06 00:35 16.75344 -99.73574 21 ft 21 kts 108°
2026-05-06 00:36 16.75300 -99.73428 21 ft 20 kts 108°
2026-05-06 00:36 16.75261 -99.73339 21 ft 13 kts 137°
2026-05-06 00:36 16.75179 -99.73340 21 ft 9 kts 199°
2026-05-06 00:36 16.75125 -99.73360 22 ft 9 kts 199°
2026-05-06 00:37 16.75090 -99.73394 21 ft 7 kts 289°
2026-05-06 00:37 16.75105 -99.73455 20 ft 10 kts 286°
2026-05-06 00:37 16.75148 -99.73587 19 ft 44 kts 288°
2026-05-06 00:37 16.75310 -99.74105 21 ft 103 kts 288°
2026-05-06 00:38 16.75586 -99.74979 20 ft 148 kts 288°
2026-05-06 00:38 16.75941 -99.76095 234 ft 168 kts 287°
2026-05-06 00:38 16.76275 -99.77279 664 ft 173 kts 282°
2026-05-06 00:38 16.76546 -99.78516 1152 ft 177 kts 279°
2026-05-06 00:39 16.76759 -99.79794 1737 ft 181 kts 277°
2026-05-06 00:39 16.76914 -99.81088 2276 ft 179 kts 275°
2026-05-06 00:39 16.77037 -99.82384 2746 ft 183 kts 281°
2026-05-06 00:39 16.77314 -99.83269 2850 ft 198 kts 291°
2026-05-06 00:40 16.77926 -99.84639 3028 ft 218 kts 295°
2026-05-06 00:40 16.78609 -99.86111 3271 ft 236 kts 297°
2026-05-06 00:40 16.79698 -99.87480 3616 ft 257 kts 321°
2026-05-06 00:40 16.81320 -99.88342 4184 ft 268 kts 342°
2026-05-06 00:41 16.83148 -99.88823 4888 ft 272 kts 345°
2026-05-06 00:41 16.84989 -99.89327 5560 ft 276 kts 344°
2026-05-06 00:41 16.86861 -99.89853 6211 ft 280 kts 344°
2026-05-06 00:41 16.88755 -99.90389 6824 ft 284 kts 345°
2026-05-06 00:42 16.90676 -99.90935 7452 ft 288 kts 345°
2026-05-06 00:42 16.92620 -99.91486 8087 ft 291 kts 345°
2026-05-06 00:42 16.94612 -99.91881 8700 ft 293 kts 359°
2026-05-06 00:42 16.96631 -99.91622 9310 ft 295 kts 18°
2026-05-06 00:43 16.98480 -99.90702 9921 ft 296 kts 33°
2026-05-06 00:43 17.00260 -99.89568 10268 ft 309 kts 32°
2026-05-06 00:43 17.02155 -99.88367 10393 ft 328 kts 32°
2026-05-06 00:43 17.04158 -99.87102 10516 ft 345 kts 32°
2026-05-06 00:44 17.06257 -99.85778 10783 ft 357 kts 32°
2026-05-06 00:44 17.08398 -99.84432 11251 ft 361 kts 32°
2026-05-06 00:44 17.10554 -99.83076 11758 ft 364 kts 32°
2026-05-06 00:44 17.12796 -99.81826 12278 ft 367 kts 22°
2026-05-06 00:45 17.15214 -99.80934 12803 ft 370 kts 20°
2026-05-06 00:45 17.17659 -99.80051 13336 ft 372 kts 20°
2026-05-06 00:45 17.20116 -99.79168 13854 ft 375 kts 20°
2026-05-06 00:45 17.22595 -99.78279 14301 ft 378 kts 20°
2026-05-06 00:46 17.25097 -99.77381 14729 ft 382 kts 21°
2026-05-06 00:46 17.27622 -99.76475 15169 ft 385 kts 21°
2026-05-06 00:46 17.30168 -99.75558 15598 ft 388 kts 21°
2026-05-06 00:46 17.32736 -99.74631 16038 ft 392 kts 21°
2026-05-06 00:47 17.35319 -99.73693 16467 ft 395 kts 21°
2026-05-06 00:47 17.37928 -99.72748 16895 ft 399 kts 21°
2026-05-06 00:47 17.40561 -99.71798 17327 ft 402 kts 21°
2026-05-06 00:47 17.43215 -99.70839 17743 ft 405 kts 21°
2026-05-06 00:48 17.45894 -99.69870 18194 ft 409 kts 21°
2026-05-06 00:48 17.48593 -99.68894 18571 ft 412 kts 21°
2026-05-06 00:48 17.51312 -99.67911 18950 ft 415 kts 21°
2026-05-06 00:48 17.54053 -99.66922 19365 ft 418 kts 21°
2026-05-06 00:49 17.56807 -99.65928 19762 ft 420 kts 21°
2026-05-06 00:49 17.59580 -99.64925 20162 ft 423 kts 21°
2026-05-06 00:49 17.62364 -99.63915 20569 ft 425 kts 21°
2026-05-06 00:49 17.65171 -99.62896 20942 ft 427 kts 21°
2026-05-06 00:50 17.67993 -99.61871 21318 ft 430 kts 21°
2026-05-06 00:50 17.70826 -99.60841 21650 ft 433 kts 21°
2026-05-06 00:50 17.73682 -99.59800 22006 ft 435 kts 21°
2026-05-06 00:50 17.76519 -99.58771 22338 ft 437 kts 21°
2026-05-06 00:51 17.79437 -99.57715 22671 ft 439 kts 21°
2026-05-06 00:51 17.82336 -99.56664 22983 ft 442 kts 21°
2026-05-06 00:51 17.85244 -99.55606 23283 ft 444 kts 21°
2026-05-06 00:51 17.88174 -99.54544 23543 ft 446 kts 20°
2026-05-06 00:52 17.91116 -99.53477 23793 ft 448 kts 20°
2026-05-06 00:52 17.94068 -99.52401 24039 ft 450 kts 21°
2026-05-06 00:52 17.97035 -99.51320 24298 ft 452 kts 21°
2026-05-06 00:52 18.00014 -99.50234 24557 ft 454 kts 20°
2026-05-06 00:53 18.03006 -99.49144 24800 ft 456 kts 20°
2026-05-06 00:53 18.06016 -99.48049 25027 ft 458 kts 20°
2026-05-06 00:53 18.09035 -99.46951 25270 ft 460 kts 20°
2026-05-06 00:53 18.12065 -99.45850 25515 ft 462 kts 20°
2026-05-06 00:54 18.15118 -99.44742 25747 ft 464 kts 20°
2026-05-06 00:54 18.18175 -99.43629 25975 ft 466 kts 20°
2026-05-06 00:54 18.21243 -99.42509 26204 ft 468 kts 20°
2026-05-06 00:54 18.24325 -99.41381 26437 ft 470 kts 20°
2026-05-06 00:55 18.27421 -99.40247 26673 ft 471 kts 20°
2026-05-06 00:55 18.30473 -99.39129 27000 ft 471 kts 20°
2026-05-06 00:55 18.33572 -99.37995 27343 ft 470 kts 20°
2026-05-06 00:55 18.36665 -99.36866 27686 ft 470 kts 20°
2026-05-06 00:56 18.39745 -99.35738 28035 ft 470 kts 20°
2026-05-06 00:56 18.42836 -99.34609 28394 ft 469 kts 20°
2026-05-06 00:56 18.45924 -99.33482 28762 ft 469 kts 20°
2026-05-06 00:56 18.49011 -99.32352 29146 ft 468 kts 20°
2026-05-06 00:57 18.52079 -99.31228 29543 ft 468 kts 20°
2026-05-06 00:57 18.55152 -99.30104 29940 ft 467 kts 19°
2026-05-06 00:57 18.58222 -99.28980 30294 ft 467 kts 19°
2026-05-06 00:57 18.61290 -99.27854 30656 ft 466 kts 19°
2026-05-06 00:58 18.64350 -99.26725 31040 ft 465 kts 21°
2026-05-06 00:58 18.67288 -99.25324 31401 ft 463 kts 30°
2026-05-06 00:58 18.69973 -99.23454 31769 ft 461 kts 39°
2026-05-06 00:58 18.72426 -99.21289 32137 ft 460 kts 41°
2026-05-06 00:59 18.74869 -99.19115 32516 ft 459 kts 41°
2026-05-06 00:59 18.77309 -99.16948 32883 ft 458 kts 40°
2026-05-06 00:59 18.79738 -99.14794 33245 ft 457 kts 40°
2026-05-06 00:59 18.82176 -99.12633 33601 ft 456 kts 40°
2026-05-06 01:00 18.84604 -99.10484 33937 ft 455 kts 40°
2026-05-06 01:00 18.87002 -99.08362 34223 ft 454 kts 40°
2026-05-06 01:00 18.89423 -99.06217 34493 ft 453 kts 40°
2026-05-06 01:00 18.91834 -99.04076 34773 ft 453 kts 40°
2026-05-06 01:01 18.94247 -99.01933 34912 ft 453 kts 40°
2026-05-06 01:01 18.99129 -98.97604 34949 ft 465 kts 40°
2026-05-06 01:02 19.04116 -98.93169 34966 ft 470 kts 40°
2026-05-06 01:02 19.09114 -98.88702 34993 ft 471 kts 40°
2026-05-06 01:03 19.14127 -98.84228 35013 ft 472 kts 40°
2026-05-06 01:03 19.19153 -98.79755 35039 ft 472 kts 40°
2026-05-06 01:04 19.24191 -98.75270 35057 ft 473 kts 40°
2026-05-06 01:04 19.29220 -98.70772 35075 ft 474 kts 40°
2026-05-06 01:05 19.34262 -98.66272 35083 ft 474 kts 40°
2026-05-06 01:05 19.39304 -98.61764 35086 ft 475 kts 40°
2026-05-06 01:06 19.44350 -98.57249 35070 ft 475 kts 40°
2026-05-06 01:06 19.49395 -98.52728 35062 ft 475 kts 40°
2026-05-06 01:07 19.54437 -98.48206 35057 ft 475 kts 40°
2026-05-06 01:07 19.59481 -98.43673 35055 ft 475 kts 40°
2026-05-06 01:08 19.64737 -98.39422 35054 ft 475 kts 29°
2026-05-06 01:08 19.70675 -98.36347 35047 ft 475 kts 25°
2026-05-06 01:09 19.76646 -98.33323 35041 ft 476 kts 25°
2026-05-06 01:09 19.82611 -98.30294 35036 ft 476 kts 25°
2026-05-06 01:10 19.88587 -98.27254 35025 ft 476 kts 25°
2026-05-06 01:10 19.94568 -98.24212 35018 ft 476 kts 25°
2026-05-06 01:11 20.00550 -98.21167 35003 ft 477 kts 25°
2026-05-06 01:11 20.06528 -98.18115 34983 ft 477 kts 25°
2026-05-06 01:12 20.12476 -98.15079 34962 ft 477 kts 25°
2026-05-06 01:12 20.18470 -98.12020 34942 ft 477 kts 25°
2026-05-06 01:13 20.24466 -98.08957 34920 ft 477 kts 25°
2026-05-06 01:13 20.30449 -98.05898 34897 ft 477 kts 25°
2026-05-06 01:14 20.39431 -98.01299 34864 ft 477 kts 25°
2026-05-06 01:14 20.45416 -97.98219 34844 ft 477 kts 25°
2026-05-06 01:15 20.51390 -97.95122 34831 ft 477 kts 25°
2026-05-06 01:15 20.57330 -97.92042 34815 ft 477 kts 25°
2026-05-06 01:16 20.63302 -97.88948 34806 ft 477 kts 25°
2026-05-06 01:16 20.69277 -97.85855 34798 ft 477 kts 25°
2026-05-06 01:17 20.75247 -97.82763 34794 ft 477 kts 25°
2026-05-06 01:17 20.81216 -97.79659 34788 ft 477 kts 25°
2026-05-06 01:18 20.87264 -97.76747 34787 ft 476 kts 16°
2026-05-06 01:18 20.93738 -97.75647 34783 ft 471 kts 357°
2026-05-06 01:19 21.00268 -97.76113 34778 ft 470 kts 354°
2026-05-06 01:19 21.06794 -97.76632 34775 ft 471 kts 354°
2026-05-06 01:20 21.13331 -97.77136 34776 ft 471 kts 354°
2026-05-06 01:20 21.19878 -97.77646 34776 ft 471 kts 354°
2026-05-06 01:21 21.25321 -97.78072 34775 ft 472 kts 354°
2026-05-06 01:21 21.31865 -97.78588 34776 ft 472 kts 353°
2026-05-06 01:22 21.38419 -97.79111 34774 ft 472 kts 353°
2026-05-06 01:22 21.44981 -97.79631 34772 ft 472 kts 354°
2026-05-06 01:23 21.51539 -97.80148 34769 ft 473 kts 353°
2026-05-06 01:23 21.58107 -97.80665 34770 ft 473 kts 353°
2026-05-06 01:24 21.64670 -97.81187 34765 ft 473 kts 353°
2026-05-06 01:24 21.71234 -97.81703 34768 ft 473 kts 353°
2026-05-06 01:25 21.77805 -97.82226 34766 ft 473 kts 353°
2026-05-06 01:25 21.84375 -97.82750 34769 ft 474 kts 353°
2026-05-06 01:26 21.90948 -97.83276 34767 ft 474 kts 353°
2026-05-06 01:26 21.97525 -97.83795 34767 ft 474 kts 353°
2026-05-06 01:27 22.04111 -97.84318 34767 ft 474 kts 353°
2026-05-06 01:27 22.10694 -97.84841 34769 ft 474 kts 353°
2026-05-06 01:28 22.17276 -97.85365 34766 ft 475 kts 353°
2026-05-06 01:28 22.23871 -97.85894 34765 ft 475 kts 353°
2026-05-06 01:29 22.30464 -97.86427 34763 ft 475 kts 353°
2026-05-06 01:29 22.37051 -97.87037 34765 ft 475 kts 352°
2026-05-06 01:30 22.43632 -97.87702 34769 ft 475 kts 352°
2026-05-06 01:30 22.50224 -97.88355 34772 ft 475 kts 352°
2026-05-06 01:31 22.56815 -97.88988 34778 ft 476 kts 352°
2026-05-06 01:31 22.63416 -97.89623 34780 ft 476 kts 352°
2026-05-06 01:32 22.70013 -97.90258 34788 ft 476 kts 352°
2026-05-06 01:32 22.76615 -97.90896 34791 ft 476 kts 352°
2026-05-06 01:33 22.83224 -97.91534 34795 ft 476 kts 352°
2026-05-06 01:33 22.89831 -97.92182 34802 ft 477 kts 352°
2026-05-06 01:34 22.96443 -97.92827 34804 ft 477 kts 352°
2026-05-06 01:34 23.03050 -97.93471 34803 ft 477 kts 352°
2026-05-06 01:35 23.09621 -97.94106 34803 ft 477 kts 352°
2026-05-06 01:35 23.16230 -97.94753 34802 ft 477 kts 352°
2026-05-06 01:36 23.22886 -97.95409 34807 ft 477 kts 352°
2026-05-06 01:36 23.29500 -97.96054 34803 ft 477 kts 352°
2026-05-06 01:37 23.36119 -97.96695 34803 ft 477 kts 352°
2026-05-06 01:37 23.42694 -97.97335 34799 ft 477 kts 352°
2026-05-06 01:38 23.49312 -97.97986 34799 ft 477 kts 351°
2026-05-06 01:38 23.55932 -97.98640 34797 ft 477 kts 351°
2026-05-06 01:39 23.62541 -97.99289 34794 ft 477 kts 351°
2026-05-06 01:39 23.69155 -97.99941 34791 ft 477 kts 351°
2026-05-06 01:40 23.75765 -98.00592 34791 ft 477 kts 351°
2026-05-06 01:40 23.82378 -98.01243 34792 ft 477 kts 351°
2026-05-06 01:41 23.88991 -98.01893 34789 ft 477 kts 351°
2026-05-06 01:41 23.95601 -98.02543 34793 ft 477 kts 351°
2026-05-06 01:42 24.01942 -98.03172 34793 ft 477 kts 351°
2026-05-06 01:42 24.08548 -98.03831 34792 ft 477 kts 351°
2026-05-06 01:43 24.15156 -98.04491 34795 ft 477 kts 351°
2026-05-06 01:43 24.21770 -98.05141 34794 ft 477 kts 351°
2026-05-06 01:44 24.28372 -98.05785 34797 ft 476 kts 351°
2026-05-06 01:44 24.34974 -98.06438 34798 ft 476 kts 351°
2026-05-06 01:45 24.41572 -98.07105 34799 ft 476 kts 351°
2026-05-06 01:45 24.48169 -98.07770 34800 ft 476 kts 351°
2026-05-06 01:46 24.54767 -98.08427 34799 ft 476 kts 351°
2026-05-06 01:46 24.61366 -98.09084 34801 ft 476 kts 351°
2026-05-06 01:47 24.67977 -98.09741 34797 ft 476 kts 351°
2026-05-06 01:47 24.74574 -98.10399 34796 ft 476 kts 350°
2026-05-06 01:48 24.81174 -98.11066 34789 ft 476 kts 350°
2026-05-06 01:48 24.87773 -98.11735 34785 ft 476 kts 350°
2026-05-06 01:49 24.94371 -98.12397 34788 ft 476 kts 350°
2026-05-06 01:49 25.00974 -98.13058 34787 ft 476 kts 350°
2026-05-06 01:50 25.07579 -98.13715 34787 ft 476 kts 350°
2026-05-06 01:50 25.14183 -98.14375 34779 ft 476 kts 350°
2026-05-06 01:51 25.20779 -98.15036 34772 ft 476 kts 350°
2026-05-06 01:51 25.27383 -98.15699 34777 ft 476 kts 350°
2026-05-06 01:52 25.33986 -98.16370 34777 ft 477 kts 350°
2026-05-06 01:52 25.40601 -98.17036 34781 ft 477 kts 350°
2026-05-06 01:53 25.47220 -98.17701 34779 ft 478 kts 349°
2026-05-06 01:53 25.53842 -98.18372 34782 ft 478 kts 349°
2026-05-06 01:54 25.60467 -98.19050 34780 ft 478 kts 349°
2026-05-06 01:54 25.67091 -98.19723 34783 ft 478 kts 349°
2026-05-06 01:55 25.73717 -98.20393 34782 ft 478 kts 349°
2026-05-06 01:55 25.80305 -98.21065 34787 ft 478 kts 349°
2026-05-06 01:56 25.86934 -98.21742 34788 ft 478 kts 349°
2026-05-06 01:56 25.93558 -98.22418 34789 ft 478 kts 349°
2026-05-06 01:57 26.00179 -98.23094 34786 ft 477 kts 349°
2026-05-06 01:57 26.06811 -98.23628 34786 ft 479 kts 351°
2026-05-06 01:58 26.13481 -98.23929 34796 ft 480 kts 352°
2026-05-06 01:58 26.20151 -98.24214 34794 ft 479 kts 352°
2026-05-06 01:59 26.26804 -98.24617 34793 ft 478 kts 351°
2026-05-06 01:59 26.33455 -98.25066 34786 ft 479 kts 351°
2026-05-06 02:00 26.40108 -98.25494 34790 ft 479 kts 351°
2026-05-06 02:00 26.46768 -98.25897 34792 ft 479 kts 351°
2026-05-06 02:01 26.53419 -98.26298 34782 ft 479 kts 351°
2026-05-06 02:01 26.60030 -98.26707 34786 ft 479 kts 350°
2026-05-06 02:02 26.66681 -98.27121 34787 ft 479 kts 350°